Location: Dessau
(51.7984°N, 12.2168°E)
Time: 09:59:54
(UTC+01:00)

Tiangong 2 - Visible Passes

Search period start: 21 January 2018 00:00
Search period end: 31 January 2018 00:00
Orbit: 384 x 390 km, 42.8° (Epoch: 20 January)

Date Brightness Start Highest point End Pass type
(mag) Time Alt. Az. Time Alt. Az. Time Alt. Az.
21 Jan 3.7 06:53:49 10° SW 06:55:54 16° S 06:58:00 10° SE visible
22 Jan 3.6 05:56:28 13° S 05:57:25 15° S 05:59:18 10° SE visible
23 Jan 3.5 06:32:52 10° SW 06:35:01 17° S 06:37:09 10° SE visible
24 Jan 3.5 05:36:50 16° SSE 05:36:50 16° SSE 05:38:35 10° SE visible
24 Jan 3.7 07:10:51 10° SW 07:12:34 14° SSW 07:14:16 10° SSE visible
25 Jan 3.4 06:13:05 14° SSW 06:14:05 16° S 06:16:05 10° SSE visible
26 Jan 4.0 05:17:03 13° SSE 05:17:03 13° SSE 05:17:41 10° SE visible
26 Jan 3.8 06:50:44 10° SW 06:51:34 11° SSW 06:52:24 10° S visible
27 Jan 3.6 05:53:17 13° S 05:53:17 13° S 05:54:45 10° SSE visible
